| time (UTC) | temp F | wind direction | speed knots | gust knots | rain 1hr in | rain 24hr in | rain mn in | humidity % | barometer mb |
| 20260831070018 | 59 | 0.0 | 0.0 | 0.00 | 0.00 | 0.00 | 58 | 1037.8 | |
| 20260831063017 | 60 | 0.0 | 1.7 | 0.00 | 0.00 | 0.00 | 56 | 1037.8 | |
| 20260831060057 | 60 | 0 | 0.9 | 6.1 | 0.00 | 0.00 | 0.00 | 52 | 1037.7 |
| 20260831053017 | 62 | 23 | 1.7 | 7.0 | 0.00 | 0.00 | 0.00 | 47 | 1038.1 |
| 20260831050017 | 63 | 0 | 1.7 | 7.8 | 0.00 | 0.00 | 0.00 | 50 | 1038.7 |
| 20260831043017 | 63 | 0 | 2.6 | 7.8 | 0.00 | 0.00 | 0.00 | 51 | 1038.7 |
| 20260831040017 | 64 | 338 | 1.7 | 7.0 | 0.00 | 0.00 | 0.00 | 51 | 1039.3 |
| 20260831033016 | 65 | 338 | 1.7 | 8.7 | 0.00 | 0.00 | 0.00 | 42 | 1039.3 |
| 20260831030057 | 63 | 338 | 2.6 | 8.7 | 0.00 | 0.00 | 0.00 | 49 | 1039.6 |
| 20260831023057 | 64 | 0 | 0.9 | 7.8 | 0.00 | 0.00 | 0.00 | 54 | 1040.2 |
| 20260831020056 | 63 | 0 | 1.7 | 5.2 | 0.00 | 0.00 | 0.00 | 51 | 1040.3 |
| 20260831013017 | 62 | 0 | 2.6 | 7.0 | 0.00 | 0.00 | 0.00 | 54 | 1040.9 |
| 20260831010036 | 62 | 0 | 2.6 | 7.0 | 0.00 | 0.00 | 0.00 | 55 | 1040.9 |
| 20260831003017 | 61 | 338 | 1.7 | 6.1 | 0.00 | 0.00 | 0.00 | 58 | 1041.1 |
| 20260831000016 | 60 | 0 | 1.7 | 7.8 | 0.00 | 0.00 | 0.00 | 57 | 1040.7 |
| 20260830233016 | 59 | 0 | 1.7 | 4.3 | 0.00 | 0.00 | 0.00 | 60 | 1040.6 |
| 20260830230016 | 59 | 0 | 0.9 | 3.5 | 0.00 | 0.00 | 0.00 | 62 | 1040.6 |
| 20260830223016 | 59 | 0.0 | 3.5 | 0.00 | 0.00 | 0.00 | 65 | 1040.6 | |
| 20260830220018 | 54 | 0.0 | 0.0 | 0.00 | 0.00 | 0.00 | 72 | 1039.9 | |
| 20260830213019 | 50 | 0.0 | 0.0 | 0.00 | 0.00 | 0.00 | 77 | 1039.0 | |
| 20260830210018 | 46 | 0.0 | 0.0 | 0.00 | 0.00 | 0.00 | 81 | 1038.4 | |
| 20260830203018 | 47 | 0.0 | 0.9 | 0.00 | 0.00 | 0.00 | 77 | 1038.3 | |
| 20260830200018 | 45 | 0.0 | 3.5 | 0.00 | 0.00 | 0.00 | 81 | 1037.8 | |
| 20260830193039 | 45 | 0.0 | 4.3 | 0.00 | 0.00 | 0.00 | 81 | 1038.1 | |
| 20260830190017 | 45 | 0.0 | 1.7 | 0.00 | 0.00 | 0.00 | 80 | 1038.4 | |
| 20260830183058 | 46 | 0.0 | 0.0 | 0.00 | 0.00 | 0.00 | 79 | 1038.4 | |
| 20260830180018 | 46 | 0.0 | 0.0 | 0.00 | 0.00 | 0.00 | 79 | 1038.7 | |
| 20260830173018 | 47 | 0.0 | 0.0 | 0.00 | 0.00 | 0.00 | 76 | 1039.1 | |
| 20260830170017 | 48 | 158 | 1.7 | 4.3 | 0.00 | 0.00 | 0.00 | 73 | 1039.3 |
| 20260830163017 | 50 | 0.0 | 1.7 | 0.00 | 0.00 | 0.00 | 67 | 1039.8 | |
| 20260830160017 | 50 | 158 | 1.7 | 4.3 | 0.00 | 0.00 | 0.00 | 64 | 1040.1 |
| 20260830153019 | 50 | 158 | 1.7 | 3.5 | 0.00 | 0.00 | 0.00 | 66 | 1040.3 |
| 20260830150017 | 49 | 0.0 | 3.5 | 0.00 | 0.00 | 0.00 | 70 | 1040.3 | |
| 20260830143017 | 49 | 0.0 | 3.5 | 0.00 | 0.00 | 0.00 | 65 | 1040.3 | |
| 20260830140017 | 49 | 0.0 | 2.6 | 0.00 | 0.00 | 0.00 | 61 | 1040.1 | |
| 20260830133018 | 48 | 0.0 | 0.0 | 0.00 | 0.00 | 0.00 | 60 | 1040.2 | |
| 20260830130018 | 48 | 0.0 | 0.0 | 0.00 | 0.00 | 0.00 | 60 | 1039.9 | |
| 20260830123020 | 49 | 0.0 | 0.0 | 0.00 | 0.00 | 0.00 | 57 | 1040.2 | |
| 20260830120018 | 49 | 0.0 | 0.0 | 0.00 | 0.00 | 0.00 | 58 | 1039.9 | |
| 20260830113100 | 48 | 0.0 | 0.0 | 0.00 | 0.00 | 0.00 | 57 | 1039.7 | |
| 20260830110018 | 49 | 0.0 | 0.0 | 0.00 | 0.00 | 0.00 | 55 | 1039.5 | |
| 20260830103118 | 49 | 0.0 | 0.0 | 0.00 | 0.00 | 0.00 | 52 | 1038.9 | |
| 20260830100018 | 50 | 0.0 | 0.0 | 0.00 | 0.00 | 0.00 | 50 | 1038.4 | |
| 20260830090018 | 49 | 0.0 | 0.0 | 0.00 | 0.00 | 0.00 | 49 | 1037.2 | |
| 20260830083017 | 50 | 0.0 | 0.0 | 0.00 | 0.00 | 0.00 | 54 | 1037.0 | |
| 20260830080019 | 51 | 0.0 | 0.0 | 0.00 | 0.00 | 0.00 | 62 | 1037.0 | |
| 20260830073018 | 54 | 0.0 | 0.9 | 0.00 | 0.00 | 0.00 | 55 | 1037.2 |